This is the latest recevied weather packets stored in our database for station/object JQ1YUX-13. If no packets are shown the sender has not sent any weather packets the latest 10 day(s).
| Time | Temp. | Humidity | Pressure | Rain* | Wind** | Luminosity | Snow |
|---|---|---|---|---|---|---|---|
| 1777871552 | 26.67° C | 62% | 993.3 hPa | 0 mm | - | - | - |
| 1777870651 | 26.67° C | 61% | 993.4 hPa | 0 mm | - | - | - |
| 1777869752 | 27.22° C | 61% | 993.4 hPa | 0 mm | - | - | - |
| 1777868853 | 27.22° C | 60% | 993.5 hPa | 0 mm | - | - | - |
| 1777867951 | 27.22° C | 60% | 993.6 hPa | 0 mm | - | - | - |
| 1777867052 | 27.78° C | 62% | 993.7 hPa | 0 mm | - | - | - |
| 1777866153 | 27.22° C | 61% | 994 hPa | 0 mm | - | - | - |
| 1777865251 | 27.22° C | 61% | 993.9 hPa | 0 mm | - | - | - |
| 1777864352 | 28.33° C | 61% | 994.5 hPa | 0 mm | - | - | - |
| 1777863452 | 28.33° C | 63% | 994.9 hPa | 0 mm | - | - | - |
| 1777862551 | 27.78° C | 65% | 995.1 hPa | 0 mm | - | - | - |
| 1777861651 | 27.78° C | 66% | 995.2 hPa | 0 mm | - | - | - |
| 1777860752 | 27.78° C | 67% | 995.1 hPa | 0 mm | - | - | - |
| 1777859853 | 27.22° C | 68% | 995.2 hPa | 0 mm | - | - | - |
| 1777858952 | 26.67° C | 70% | 995.6 hPa | 0 mm | - | - | - |
| 1777858052 | 26.67° C | 72% | 995.6 hPa | 0 mm | - | - | - |
| 1777857522 | 26.11° C | 72% | 995.6 hPa | 0 mm | - | - | - |
| 1777857153 | 26.67° C | 72% | 995.6 hPa | 0 mm | - | - | - |
| 1777856251 | 26.67° C | 74% | 995.7 hPa | 0 mm | - | - | - |
| 1777855352 | 26.11° C | 75% | 995.8 hPa | 0 mm | - | - | - |
| 1777854453 | 26.11° C | 77% | 995.7 hPa | 0 mm | - | - | - |
| 1777853551 | 25.56° C | 80% | 995.7 hPa | 0 mm | - | - | - |
| 1777852652 | 25° C | 82% | 995.8 hPa | 0 mm | - | - | - |
| 1777851753 | 23.89° C | 85% | 995.7 hPa | 0 mm | - | - | - |
| 1777850851 | 23.89° C | 87% | 995.6 hPa | 0 mm | - | - | - |
* Rain latest hour (hover to see other rain measurements)
** Current wind speed in m/s (hover to see current wind gust speed)